Temperature
17 17 17 17 17 16 16 16 16 16 16 16 16 16 16 16 17 17 17 17 17 17 17 17 17 17 17 17 17 16 16 17 17 17 17 16 16 16 16 16 16 16 16
17 16 16 16 16 16 16 16 16 16 16 16 16 16 16 16 16 16 16 17 17 17 17 17 17 17 17 17 17 16 16 16 16 16 16 16 16 16 16 16 16 16 16
16 16 16 16 16 16 16 16 15 15 15 16 15 15 16 16 16 16 16 16 16 17 17 17 17 16 16 16 16 16 16 16 16 16 16 16 16 16 16 16 16 16 16
16 16 16 16 15 15 15 15 15 15 15 15 15 15 16 15 15 16 16 16 16 16 16 16 16 16 16 16 16 16 16 16 16 16 16 16 16 16 16 16 16 16 16
16 15 15 15 15 15 15 15 15 15 15 15 15 15 15 15 15 16 15 16 16 16 16 16 16 16 16 16 16 16 16 16 16 16 16 16 16 16 16 16 16 16 16
15 15 15 15 15 15 15 14 14 14 14 15 16 15 15 15 15 15 16 16 16 16 16 16 16 16 16 16 16 16 16 16 16 16 16 16 16 16 16 16 16 16 16
15 15 15 15 14 14 14 14 14 14 15 14 15 16 16 15 15 15 15 15 15 15 15 15 15 16 16 16 16 16 16 16 16 16 16 16 16 16 16 16 16 16 16
15 15 14 14 14 14 14 14 14 14 14 14 15 16 17 16 15 15 15 15 15 15 15 15 15 15 15 16 16 16 16 16 16 16 16 16 16 16 16 16 16 16 16
15 14 14 14 14 14 14 13 13 13 14 14 14 15 17 17 16 16 14 14 14 15 15 15 15 15 15 15 15 16 16 16 16 16 16 16 15 15 15 16 16 16 16
14 14 14 14 14 14 14 14 13 13 13 15 14 14 14 14 15 16 16 15 14 14 14 15 15 15 15 15 15 15 16 16 16 16 16 15 15 15 15 15 15 16 16
14 14 14 14 14 14 13 13 13 13 13 14 14 14 14 14 14 15 16 15 15 15 14 14 14 14 14 14 14 15 15 15 15 16 16 16 15 15 15 15 15 15 15
14 14 14 14 14 13 13 13 13 13 13 13 13 14 14 14 15 15 15 15 15 15 14 14 14 14 14 14 14 15 15 15 15 15 15 15 15 15 15 15 15 15 15
15 14 14 14 13 13 13 13 13 13 12 12 12 13 13 13 13 14 14 15 15 15 14 14 14 14 14 14 13 14 14 14 15 15 15 15 15 15 15 15 15 15 15
15 14 14 14 13 13 13 13 13 12 12 12 12 12 12 13 13 13 13 14 14 15 15 14 14 14 13 13 13 13 13 13 14 14 14 15 15 15 15 15 15 15 15
15 14 14 14 13 13 13 13 13 12 12 12 12 12 12 12 12 12 12 13 13 14 15 14 14 13 12 12 12 12 12 12 13 14 14 14 14 14 14 15 15 15 15
15 14 14 14 13 13 13 13 12 12 12 12 12 12 12 12 12 12 12 12 12 13 13 14 13 13 12 12 12 12 12 12 13 13 13 14 14 14 14 14 14 14 15
15 14 14 14 14 13 13 13 13 12 12 12 12 12 12 12 12 12 12 12 12 12 12 13 13 12 11 11 11 11 12 12 12 12 13 13 13 13 14 14 14 14 14
15 15 14 14 14 13 13 13 13 13 12 12 12 12 12 12 12 12 12 12 12 11 11 12 12 12 12 11 11 11 11 12 12 12 12 13 13 13 13 13 13 14 14
15 15 14 14 14 13 13 13 13 13 13 12 12 12 12 12 12 12 11 12 12 12 11 11 12 12 11 11 11 11 11 11 12 12 12 12 12 13 13 13 13 13 13
15 15 15 14 14 14 14 13 13 13 13 13 12 12 12 12 12 12 11 11 11 11 11 11 12 12 12 11 11 11 12 12 12 12 12 12 12 12 12 13 13 13 13
15 15 15 14 14 14 14 14 13 13 13 13 13 13 12 12 12 12 12 11 11 11 11 12 12 12 12 11 11 11 12 11 12 12 12 12 12 12 12 12 12 12 13
15 15 15 15 14 14 14 14 14 13 13 13 13 13 12 12 13 13 12 12 12 11 11 11 11 12 11 11 11 11 11 11 11 12 11 11 12 12 12 12 12 12 12
16 15 15 15 15 15 15 15 14 14 13 13 13 13 13 13 12 12 12 12 12 12 12 11 11 11 11 11 10 10 10 10 10 11 10 11 11 11 11 12 11 11 11
16 15 15 15 15 15 15 15 14 14 14 13 13 13 13 13 12 12 12 11 11 11 11 11 11 11 10 10 10 10 9 9 9 10 10 10 11 11 11 11 11 11 11
16 15 15 15 15 15 15 15 14 14 13 13 13 13 13 13 13 13 12 11 11 11 11 11 11 11 11 10 10 9 9 10 10 11 11 10 11 11 11 11 11 11 11
16 15 15 15 15 15 15 15 14 14 13 13 13 13 13 13 13 13 12 12 11 11 11 11 11 11 11 10 10 10 9 10 10 11 11 10 10 10 11 11 11 11 11
Wind_Speed
2 2 1 0 1 1 2 2 2 2 4 4 4 4 4 4 5 5 3 5 5 6 7 9 12 14 14 14 14 14 14 13 13 13 12 12 12 12 12 11 11 10 11
2 2 2 0 1 1 1 1 1 2 3 3 4 4 4 4 4 5 6 5 7 7 7 8 11 12 14 15 15 15 14 14 14 14 14 14 14 13 13 13 12 12 11
3 1 1 0 1 0 1 1 1 2 3 3 3 3 3 4 3 4 5 5 5 8 9 9 11 11 13 15 15 16 15 14 14 15 16 16 15 15 15 14 14 14 13
3 1 1 1 1 0 0 0 1 2 1 2 2 2 2 2 3 4 4 4 5 5 8 9 9 11 13 14 14 16 16 16 16 17 17 18 18 17 17 16 16 15 15
4 2 2 3 1 1 1 1 1 2 1 2 2 2 2 2 2 2 3 3 3 4 5 6 8 9 11 13 14 16 17 18 19 19 20 19 19 19 19 19 18 17 17
4 2 3 3 1 2 2 2 2 2 3 3 5 2 2 2 2 1 2 2 2 4 5 4 6 8 11 12 13 14 16 18 19 21 22 22 21 21 21 21 20 20 19
5 2 3 3 1 2 2 1 2 0 2 3 4 3 2 2 0 1 1 1 1 2 3 4 5 5 6 11 12 12 13 15 18 20 22 23 23 23 23 23 22 22 21
5 4 2 2 2 2 2 1 1 2 2 2 4 4 2 3 3 1 0 0 2 2 2 3 3 4 6 6 7 10 11 12 15 18 20 21 22 23 24 24 24 24 24
5 3 3 1 2 1 2 1 1 2 2 1 3 4 3 2 1 2 0 1 1 2 2 2 3 3 5 5 5 6 6 8 11 14 17 20 21 23 24 25 26 26 26
6 5 4 3 2 1 2 1 2 1 2 2 1 1 3 4 4 1 3 2 1 1 2 3 3 2 3 4 2 1 2 4 7 10 12 17 20 22 23 25 25 26 26
6 6 6 4 3 2 1 1 1 2 2 3 2 1 1 1 4 5 4 3 3 2 2 3 3 3 3 3 3 2 3 3 5 6 8 10 14 19 21 23 24 25 26
6 7 7 5 5 3 3 3 2 2 1 2 3 3 3 3 3 4 5 5 5 4 4 4 5 4 4 4 1 6 4 4 4 5 6 8 10 12 15 19 22 24 24
7 8 7 6 5 4 4 3 3 2 2 2 3 3 3 3 4 4 5 6 6 5 3 5 3 4 5 4 2 5 3 3 4 5 6 7 8 9 12 14 17 19 21
6 7 7 7 6 6 6 4 4 4 3 3 3 3 4 3 3 4 5 6 7 5 4 3 4 4 4 6 3 7 7 2 4 6 7 7 7 8 9 12 14 16 18
6 8 8 7 7 7 6 6 4 4 4 5 4 5 5 3 4 4 5 5 6 7 6 3 4 3 5 7 5 9 10 4 6 9 9 9 9 10 11 12 13 15 17
7 8 8 8 8 7 7 7 6 5 5 5 4 4 5 5 4 5 5 5 6 7 8 6 5 7 7 10 7 9 11 9 14 13 11 10 11 11 12 13 14 15 16
9 9 9 8 8 8 8 7 7 6 7 6 6 6 7 6 5 5 5 6 6 7 9 9 8 7 7 9 9 10 12 12 12 13 11 11 12 13 14 14 15 15 16
10 10 9 9 9 9 8 8 8 8 8 8 7 7 8 6 7 7 6 7 7 7 9 11 9 9 9 9 9 10 12 12 12 8 10 11 13 14 15 16 16 17 17
11 10 10 10 10 9 9 9 9 9 9 8 8 8 8 8 8 8 7 8 7 8 8 10 11 9 9 9 9 10 11 10 13 13 13 17 18 17 17 17 18 18 18
12 11 11 11 10 10 10 10 10 10 10 9 9 9 10 10 10 9 8 9 9 9 9 10 10 9 9 9 8 10 10 9 9 11 11 12 14 17 19 20 20 20 20
12 12 11 11 11 11 11 11 10 11 11 11 11 11 11 10 9 9 9 9 8 9 10 10 10 10 9 8 9 9 10 10 10 10 10 11 11 13 15 20 23 22 20
12 12 12 12 12 11 9 10 10 11 11 11 12 12 12 12 13 15 14 13 12 12 12 11 11 11 11 11 9 10 11 11 11 8 9 11 11 11 11 14 13 16 18
13 12 12 13 13 12 11 13 14 12 13 12 12 12 12 11 12 13 15 18 18 19 17 15 15 14 13 12 11 13 12 12 13 11 11 13 12 13 12 14 11 12 15
12 12 13 13 13 13 14 15 14 14 15 15 15 15 14 14 14 13 14 14 15 15 16 16 16 16 15 13 12 13 14 14 14 13 13 14 13 13 13 13 14 18 19
11 12 12 13 13 13 13 15 14 12 13 16 16 16 16 16 15 13 15 16 16 15 16 19 19 18 17 15 13 12 14 14 14 13 11 13 13 13 13 13 14 19 22
10 11 11 12 13 13 11 14 15 12 13 14 14 15 17 19 16 15 16 17 17 17 15 14 15 18 19 19 19 17 16 15 15 14 12 11 12 12 13 12 11 10 13
Wind_Direction
169 151 118 292 271 230 195 225 247 249 261 258 260 256 265 266 266 264 209 166 209 226 228 224 218 216 212 211 212 208 206 204 200 195 193 191 188 187 186 186 185 182 179
129 144 171 193 290 299 1 271 267 258 261 269 263 257 253 254 247 265 270 205 197 217 227 228 224 218 215 214 214 213 209 210 207 205 203 200 198 195 196 195 193 191 188
119 141 129 177 26 343 213 248 260 256 251 246 252 255 244 256 265 261 266 267 230 208 214 224 227 223 220 220 217 216 214 214 215 214 212 208 205 203 202 201 199 197 196
120 138 112 76 57 280 242 221 270 271 273 273 269 278 270 246 262 265 259 247 254 250 210 206 225 226 225 224 223 221 218 215 219 221 219 215 212 210 208 207 205 202 202
135 128 88 82 143 82 48 321 48 324 321 319 286 259 283 274 270 259 270 267 257 262 258 191 211 226 230 227 228 229 225 219 220 223 224 221 217 215 213 212 210 209 207
137 125 119 105 83 74 64 49 41 17 330 325 304 303 283 277 264 273 266 247 249 254 256 256 227 217 219 224 226 229 230 224 221 225 227 224 221 218 217 216 215 213 212
137 135 113 122 94 75 42 24 344 337 338 337 297 274 228 218 229 225 299 300 274 271 259 253 261 268 228 213 219 228 232 229 225 224 226 227 225 222 220 219 218 216 215
156 153 131 148 116 117 111 58 351 333 9 357 320 297 253 188 196 130 224 24 344 298 267 251 251 254 266 248 203 215 230 235 233 229 226 226 225 225 223 221 220 219 217
170 158 163 154 148 186 109 96 359 349 342 2 357 323 309 328 270 167 150 18 342 325 296 275 247 252 257 256 249 208 224 237 240 237 230 227 227 228 228 225 223 221 220
179 176 178 172 188 154 134 193 79 333 311 329 66 357 344 346 307 272 203 175 216 291 329 304 288 264 266 261 247 288 268 265 254 245 239 233 229 230 232 231 228 225 224
186 187 185 180 186 194 155 83 130 305 309 325 330 321 314 253 270 292 296 299 273 265 299 286 293 291 297 284 274 38 11 312 282 258 244 238 233 231 232 234 233 231 228
189 189 190 191 198 192 179 194 210 213 304 335 315 310 301 302 303 299 293 286 293 289 298 294 275 277 282 283 339 38 0 340 319 294 264 245 236 235 235 236 236 235 233
195 186 194 195 200 194 197 202 210 241 231 243 266 288 301 300 308 303 301 305 304 291 275 262 262 276 276 288 298 4 279 315 322 311 294 264 244 241 240 241 241 240 238
200 177 191 196 198 198 202 203 226 217 224 241 255 277 279 275 284 287 298 305 301 297 268 275 290 274 300 290 343 319 273 236 307 307 297 281 262 253 247 245 243 242 241
190 184 192 193 195 199 208 215 234 232 229 240 241 228 251 267 264 274 279 287 297 301 302 288 273 286 291 296 308 292 289 276 292 289 285 279 272 264 256 251 247 244 241
191 188 193 196 198 200 205 221 228 219 232 237 251 266 264 264 264 267 270 273 276 286 292 297 292 292 310 303 283 285 280 272 258 254 260 266 269 267 263 259 255 251 246
191 196 198 200 203 206 209 217 235 224 231 238 239 237 242 263 267 269 265 269 271 275 281 287 289 288 282 283 294 290 283 277 267 223 232 256 264 265 263 261 259 257 254
197 199 202 205 210 212 213 219 228 229 232 238 240 242 244 242 244 260 267 268 271 274 275 284 289 287 280 278 277 280 280 277 279 238 223 246 256 259 259 259 258 257 255
201 202 205 210 215 217 218 221 227 232 235 239 241 242 245 247 248 254 257 267 271 268 268 276 280 283 280 276 279 275 274 271 274 265 232 234 241 248 253 256 256 254 252
202 205 208 214 218 220 222 224 225 230 237 240 241 243 245 245 245 251 253 256 264 273 270 269 275 278 276 274 272 275 276 267 268 276 276 266 246 238 245 249 249 248 248
206 208 213 217 220 222 224 224 228 231 235 241 242 241 243 242 251 251 260 264 263 265 271 271 274 277 278 283 280 282 283 284 274 270 272 271 262 254 245 236 235 237 239
212 213 217 221 223 227 202 207 234 245 243 244 247 247 246 232 231 227 240 251 260 262 267 274 276 277 278 279 280 281 283 282 282 279 278 277 275 272 267 262 242 219 227
212 216 221 225 230 230 199 202 217 242 250 250 250 250 253 250 229 240 231 227 238 242 246 256 268 273 277 276 280 279 274 276 281 287 286 279 276 272 268 264 230 220 231
216 219 224 228 233 232 204 208 213 234 249 252 251 250 251 256 251 246 251 248 246 243 235 236 249 259 264 270 270 271 276 275 270 264 260 268 273 273 272 268 240 222 232
219 223 227 231 235 236 210 208 212 241 245 249 250 249 249 250 244 229 245 254 256 256 247 235 239 249 259 265 263 266 266 268 270 269 256 259 269 273 273 269 257 227 227
222 229 232 234 238 243 220 205 208 241 251 254 252 249 242 241 247 222 239 249 254 257 261 255 235 240 248 248 237 241 253 260 266 270 266 261 266 271 275 269 265 254 236
Height
1574 1575 1575 1575 1576 1576 1577 1576 1577 1577 1577 1578 1578 1579 1579 1580 1581 1582 1582 1581 1582 1583 1584 1584 1586 1587 1588 1588 1590 1591 1593 1594 1595 1596 1597 1598 1599 1601 1602 1603 1604 1605 1606
1573 1574 1574 1574 1575 1575 1575 1575 1576 1576 1576 1576 1577 1577 1577 1578 1578 1578 1580 1580 1580 1581 1582 1583 1583 1584 1586 1587 1588 1590 1591 1592 1594 1595 1596 1598 1599 1600 1601 1602 1604 1605 1606
1572 1573 1574 1573 1574 1574 1573 1574 1574 1575 1575 1575 1575 1575 1576 1576 1576 1576 1577 1578 1578 1579 1579 1580 1581 1582 1583 1584 1586 1587 1589 1590 1592 1593 1595 1596 1598 1599 1600 1601 1603 1604 1605
1571 1572 1573 1573 1572 1573 1573 1573 1573 1574 1574 1574 1574 1574 1574 1574 1574 1574 1575 1575 1576 1577 1578 1578 1579 1580 1581 1582 1583 1584 1586 1587 1589 1591 1592 1594 1596 1597 1598 1600 1601 1603 1604
1570 1572 1572 1571 1572 1572 1572 1573 1573 1573 1574 1573 1573 1573 1573 1573 1573 1573 1573 1574 1574 1574 1576 1575 1576 1577 1578 1579 1580 1581 1583 1584 1585 1587 1589 1591 1593 1595 1596 1598 1599 1601 1602
1570 1571 1571 1570 1572 1572 1572 1572 1572 1572 1572 1572 1572 1572 1572 1572 1572 1572 1572 1572 1572 1573 1573 1574 1574 1575 1575 1576 1577 1578 1579 1580 1582 1583 1585 1588 1590 1592 1593 1595 1597 1599 1600
1569 1570 1572 1570 1571 1572 1571 1572 1572 1572 1572 1571 1572 1571 1571 1571 1571 1570 1571 1571 1571 1571 1571 1571 1572 1573 1573 1573 1574 1575 1576 1577 1578 1580 1581 1583 1586 1588 1590 1592 1594 1595 1597
1568 1570 1570 1571 1571 1570 1570 1571 1571 1572 1572 1571 1571 1570 1570 1571 1570 1570 1570 1570 1570 1570 1570 1570 1570 1570 1571 1572 1571 1572 1573 1574 1575 1576 1577 1579 1581 1584 1586 1588 1590 1592 1594
1568 1568 1569 1570 1570 1571 1571 1570 1570 1571 1571 1571 1570 1571 1569 1568 1569 1569 1569 1568 1568 1568 1568 1568 1568 1568 1568 1569 1569 1569 1570 1571 1572 1573 1574 1575 1577 1579 1581 1583 1585 1587 1589
1566 1567 1568 1568 1569 1570 1569 1570 1570 1570 1570 1571 1570 1569 1570 1569 1569 1568 1569 1568 1567 1567 1567 1567 1567 1567 1566 1567 1566 1566 1567 1567 1568 1569 1570 1571 1572 1574 1576 1578 1580 1582 1584
1564 1566 1566 1567 1567 1569 1568 1568 1568 1568 1569 1569 1570 1569 1569 1568 1568 1569 1567 1568 1567 1567 1566 1565 1565 1565 1565 1564 1564 1563 1563 1564 1565 1565 1566 1567 1568 1569 1570 1572 1574 1576 1578
1563 1564 1565 1565 1566 1567 1567 1567 1567 1567 1567 1567 1567 1568 1568 1568 1568 1567 1566 1566 1565 1565 1564 1563 1563 1563 1563 1563 1562 1560 1560 1561 1561 1562 1562 1563 1564 1565 1566 1567 1569 1570 1572
1562 1561 1563 1563 1564 1565 1565 1565 1565 1566 1566 1566 1566 1566 1567 1567 1566 1566 1565 1564 1563 1563 1561 1561 1561 1561 1561 1560 1559 1557 1557 1557 1557 1558 1558 1559 1559 1560 1561 1562 1563 1564 1566
1560 1559 1560 1561 1562 1563 1564 1563 1565 1565 1564 1564 1564 1564 1564 1565 1564 1564 1564 1563 1562 1561 1560 1560 1559 1559 1558 1557 1555 1554 1554 1553 1553 1553 1554 1554 1555 1555 1556 1557 1558 1559 1560
1556 1556 1557 1558 1559 1560 1561 1561 1563 1562 1562 1563 1563 1562 1562 1563 1562 1562 1562 1561 1561 1559 1558 1557 1557 1556 1555 1554 1551 1550 1550 1549 1548 1549 1549 1549 1550 1550 1551 1551 1552 1553 1554
1553 1554 1555 1556 1557 1558 1558 1559 1560 1560 1560 1560 1560 1560 1560 1561 1560 1560 1559 1559 1558 1558 1556 1555 1554 1553 1551 1550 1549 1546 1545 1544 1543 1544 1544 1544 1545 1545 1546 1546 1547 1547 1548
1549 1551 1552 1553 1554 1555 1556 1556 1558 1558 1558 1558 1558 1558 1557 1557 1557 1557 1557 1556 1555 1555 1553 1552 1551 1549 1547 1545 1544 1543 1541 1540 1540 1539 1538 1538 1539 1539 1540 1540 1541 1541 1542
1546 1547 1549 1550 1551 1553 1553 1554 1554 1555 1555 1555 1555 1555 1555 1555 1554 1553 1553 1553 1552 1550 1549 1548 1546 1545 1544 1541 1539 1537 1537 1537 1536 1535 1532 1532 1532 1532 1533 1534 1534 1535 1535
1543 1544 1545 1547 1548 1549 1550 1550 1551 1552 1552 1552 1552 1552 1551 1551 1550 1550 1549 1549 1548 1547 1546 1544 1542 1541 1539 1538 1536 1534 1533 1531 1530 1530 1528 1526 1526 1525 1526 1526 1527 1527 1528
1539 1540 1542 1543 1544 1545 1546 1547 1547 1548 1548 1548 1548 1547 1547 1547 1546 1546 1545 1544 1543 1543 1542 1540 1538 1537 1535 1534 1532 1531 1529 1528 1526 1526 1524 1522 1520 1519 1518 1519 1519 1520 1521
1535 1537 1538 1539 1540 1541 1542 1543 1544 1544 1544 1544 1544 1543 1543 1542 1541 1541 1541 1541 1540 1538 1538 1536 1535 1533 1531 1530 1529 1527 1525 1524 1522 1520 1519 1517 1516 1514 1513 1512 1511 1512 1513
1531 1533 1534 1535 1536 1538 1538 1538 1539 1540 1540 1539 1539 1538 1538 1536 1536 1535 1535 1534 1534 1533 1532 1531 1530 1529 1527 1526 1524 1522 1521 1519 1517 1517 1514 1512 1511 1509 1508 1508 1506 1505 1505
1527 1528 1529 1530 1531 1532 1533 1533 1534 1534 1534 1534 1533 1533 1533 1533 1531 1530 1528 1527 1527 1526 1525 1525 1523 1522 1521 1520 1519 1517 1515 1513 1511 1511 1509 1506 1505 1503 1502 1501 1499 1498 1498
1522 1523 1524 1525 1526 1527 1527 1528 1528 1528 1527 1527 1527 1526 1526 1525 1525 1524 1523 1522 1521 1519 1518 1517 1515 1514 1514 1513 1512 1510 1509 1506 1504 1503 1502 1500 1498 1497 1495 1494 1492 1490 1489
1517 1518 1519 1519 1520 1521 1521 1522 1522 1521 1521 1520 1520 1519 1519 1518 1518 1517 1516 1515 1514 1513 1512 1510 1508 1507 1506 1505 1504 1503 1502 1501 1498 1497 1496 1494 1492 1490 1488 1487 1485 1483 1481
1512 1513 1514 1514 1514 1514 1515 1515 1515 1515 1515 1514 1513 1512 1511 1510 1510 1509 1509 1508 1506 1505 1505 1504 1501 1499 1497 1496 1495 1494 1494 1494 1492 1490 1489 1488 1486 1485 1482 1480 1479 1477 1475